Location: Unspecified
(33.6682°S, 0.0000°E)
Time: 01:01:23
(UTC+00:00)

Vanguard 1 - Pass Details

Date: 02 July 2019
Orbit: 653 x 3830 km, 34.3° (Epoch: 20 July)

Event Time Altitude Azimuth Distance (km) Brightness Sun altitude
Rises 21:21:49 0° 274° (W) 6,022 14.7 -53.0°
Reaches altitude 10° 21:28:45 10° 297° (WNW) 5,676 14.2 -54.4°
Maximum altitude 21:36:13 14° 322° (NW) 5,901 14.1 -56.0°
Drops below altitude 10° 21:44:57 10° 346° (NNW) 6,693 14.3 -57.8°
Sets 21:55:23 0° 7° (N) 7,949 14.6 -59.9°
